Regional Weather Roundup
Issued by NWS State College, PA

Home | Current Version | Previous Version | Graphics & Text | Print | Product List | Glossary On
Versions: 1 2 3 4 5 6 7 8 9 10 11 12 13 14 15 16 17 18 19 20 21 22 23 24 25 26 27 28 29 30 31 32 33 34 35 36 37 38 39 40 41 42 43 44 45 46 47 48 49 50
000
ASUS41 KCTP 290003
RWRCTP

REGIONAL WEATHER ROUNDUP
NATIONAL WEATHER SERVICE STATE COLLEGE PA
800 PM EDT THU AUG 28 2014

Note: "fair" indicates few or no clouds below 12,000 feet with no
significant weather and/or obstructions to visibility.

* = STATION THAT DOES NOT REPORT PRECIPITATION /E.G. RAIN...SNOW...ETC/
    THUNDER OR FOG.

PAZ002>004-007>009-013>016-020>023-029>032-290100-
WESTERN PENNSYLVANIA

CITY           SKY/WX    TMP DP  RH WIND       PRES   REMARKS
ERIE           CLEAR     65  51  60 W5        30.12R
MEADVILLE      CLEAR     61  49  64 N3        30.13R
FRANKLIN*      CLEAR     61  46  59 N3        30.14R
NEW CASTLE     FAIR      65  54  67 CALM      30.12R
BEAVER COUNTY  CLEAR     64  52  63 N5        30.11R
BUTLER*        CLEAR     64  48  55 CALM      30.13R
PITTSBURGH INT PTCLDY    69  51  52 N7        30.10R
PITTSBURGH     CLEAR     67  49  52 NW3       30.09R
INDIANA*       CLEAR     66  52  59 CALM      30.14R
LATROBE        PTCLDY    66  54  63 VRB6      30.11R
WASHINGTON CO* CLEAR     63  55  77 NW3       30.11R
$$

PAZ004>006-010>012-017>019-024>028-033>037-041-042-045-046-049>053-290100-
CENTRAL PENNSYLVANIA

CITY           SKY/WX    TMP DP  RH WIND       PRES   REMARKS
BRADFORD       CLEAR     57  46  66 N5        30.13R
DUBOIS         CLEAR     63  50  62 N6        30.11R
CLEARFIELD     CLEAR     63  49  60 N5        30.10R
JOHNSTOWN      CLEAR     62  48  60 NW5       30.12R
ALTOONA        CLEAR     65  52  62 NW3       30.09R
STATE COLLEGE  CLEAR     68  50  52 NW7       30.08R
WILLIAMSPORT   CLEAR     68  47  46 N6        30.05R
SELINSGROVE    CLEAR     66  53  63 N3        30.04R
FT INDIANTOWN  PTCLDY    65  58  78 N3        30.03R
CAPITAL CITY   CLEAR     69  54  58 SW5       30.02R
HARRISBURG     PTCLDY    72  52  49 NW3       30.01R
YORK           CLEAR     62  56  80 CALM      30.03R
$$

PAZ038>040-043-044-047-048-054-055-060>062-067>071-290100-
EASTERN PENNSYLVANIA

CITY           SKY/WX    TMP DP  RH WIND       PRES   REMARKS
SCRANTON       PTCLDY    65  46  50 N10       30.07R
MOUNT POCONO   PTCLDY    60  47  61 N8        30.06R
ALLENTOWN      CLEAR     68  50  52 N7        30.02R
QUAKERTOWN*    PTCLDY    68  52  56 MISG      30.02R
READING        CLEAR     70  52  52 NW6       30.01R
LANCASTER      CLEAR     68  52  56 NW3       30.02R
COATESVILLE    CLEAR     64  55  72 NW6       30.03R
POTTSTOWN      CLEAR     69  51  52 CALM      30.02R
BLUE BELL      CLEAR     68  54  60 CALM      29.99R
DOYLESTOWN     CLEAR     69  50  50 N6        30.00R
WILLOW GROVE   NOT AVBL
NORTH PHILA    CLEAR     72  48  42 N7        30.00R
PHILADELPHIA   PTCLDY    76  50  40 NW9       30.00R
$$


USA.gov is the U.S. government's official web portal to all federal, state and local government web resources and services.